This is the latest recevied weather packets stored in our database for station/object K7PMV-13. If no packets are shown the sender has not sent any weather packets the latest 10 day(s).
| Time | Temp. | Humidity | Pressure | Rain* | Wind** | Luminosity | Snow |
|---|---|---|---|---|---|---|---|
| 1777507361 | 30.56° C | 15% | 1007 hPa | 0 mm | - | 156 W/m² | - |
| 1777507059 | 30.56° C | 15% | 1007.1 hPa | 0 mm | - | 193 W/m² | - |
| 1777506754 | 30.56° C | 15% | 1007 hPa | 0 mm | - | 197 W/m² | - |
| 1777506451 | 30.56° C | 15% | 1007.1 hPa | 0 mm | - | 178 W/m² | - |
| 1777506148 | 30.56° C | 16% | 1007.1 hPa | 0 mm | - | 167 W/m² | - |
| 1777505846 | 30.56° C | 15% | 1007 hPa | 0 mm | - | 376 W/m² | - |
| 1777505543 | 30.56° C | 16% | 1007 hPa | 0 mm | - | 279 W/m² | - |
| 1777505241 | 31.11° C | 15% | 1006.9 hPa | 0 mm | - | 294 W/m² | - |
| 1777504938 | 31.11° C | 15% | 1007 hPa | 0 mm | - | 251 W/m² | - |
| 1777504636 | 31.11° C | 15% | 1007.2 hPa | 0 mm | - | 255 W/m² | - |
| 1777504333 | 31.67° C | 14% | 1007.1 hPa | 0 mm | - | 265 W/m² | - |
| 1777504030 | 31.67° C | 15% | 1007.2 hPa | 0 mm | - | 638 W/m² | - |
| 1777503728 | 31.11° C | 15% | 1007.2 hPa | 0 mm | - | 385 W/m² | - |
| 1777503425 | 30.56° C | 16% | 1007.1 hPa | 0 mm | - | 330 W/m² | - |
| 1777503122 | 30.56° C | 16% | 1007.1 hPa | 0 mm | - | 281 W/m² | - |
| 1777502819 | 31.11° C | 15% | 1007.3 hPa | 0 mm | - | 573 W/m² | - |
| 1777502509 | 31.11° C | 14% | 1007.3 hPa | 0 mm | - | 494 W/m² | - |
| 1777502207 | 31.11° C | 14% | 1007.3 hPa | 0 mm | - | 352 W/m² | - |
| 1777501904 | 31.11° C | 15% | 1007.5 hPa | 0 mm | - | 376 W/m² | - |
| 1777501601 | 31.11° C | 15% | 1007.6 hPa | 0 mm | - | 680 W/m² | - |
| 1777501299 | 31.11° C | 15% | 1007.9 hPa | 0 mm | - | 341 W/m² | - |
| 1777500996 | 31.11° C | 16% | 1008 hPa | 0 mm | - | 454 W/m² | - |
| 1777500727 | 31.67° C | 15% | 1008.2 hPa | 0 mm | - | 471 W/m² | - |
| 1777500693 | 31.11° C | 16% | 1008 hPa | 0 mm | - | 554 W/m² | - |
| 1777500391 | 31.67° C | 15% | 1008.2 hPa | 0 mm | - | 471 W/m² | - |
* Rain latest hour (hover to see other rain measurements)
** Current wind speed in m/s (hover to see current wind gust speed)